Tracking 32418 objects as of 9-Dec-2025
HD Live streaming from Space Station
objects crossing your sky now

BREEZE-M R/B

Track BREEZE-M R/B now!


NORAD ID: 28925
Int'l Code: 2005-052B
Perigee: 6,183.8 km
Apogee: 35,358.6 km
Inclination: 20.0 °
Period: 741.7 minutes
Semi major axis: 27142 km
RCS: 0.6439 m2 (medium)
Launch date: December 29, 2005
Source: Commonwealth of Independent States (former USSR) (CIS)
Launch site: TYURATAM MISSILE AND SPACE COMPLEX (TTMTR)

Note: This is a ROCKET BODY
Your satellite tracking list
Your tracking list is empty




NASA's NSSDC Master Catalog

Two Line Element Set (TLE):
1 28925U 05052B   25343.17528225 -.00000019  00000-0  00000+0 0  9997
2 28925  20.0358 342.1869 5374444 167.2035 300.8095  1.94149292141398
Source of the keplerian elements: AFSPC